RH
92 84 71 72 63 56 61 56 60 81 83 79 77 66 62 59 71 88 98 91 75 43 20 19 20 15 15 15 16 16 17 18
38 42 50 59 56 52 38 68 96 88 88 74 51 54 60 68 78 86 88 90 63 23 23 22 21 18 17 19 23 31 21 19
54 54 49 48 45 47 39 27 32 36 35 36 38 56 70 62 63 100 99 93 92 35 30 40 47 32 37 41 42 32 13 14
36 42 44 46 46 40 30 27 26 24 33 62 77 82 82 61 59 76 96 99 99 83 58 68 52 57 57 50 46 50 22 17
31 29 30 28 26 22 23 23 22 23 51 79 72 80 86 42 52 71 98 98 97 98 95 87 78 70 68 56 48 49 41 51
36 29 24 23 24 23 22 21 19 19 28 68 74 73 64 46 45 65 95 89 95 88 89 78 80 87 80 71 70 57 53 78
49 37 31 41 43 37 32 32 31 28 48 62 73 75 76 58 30 21 38 56 82 98 95 96 94 90 84 82 72 65 74 96
67 76 58 40 48 38 32 40 66 51 68 81 89 99 92 94 81 76 55 64 84 95 90 96 90 88 90 76 68 94 100 99
75 99 94 59 54 50 43 70 62 78 88 93 92 98 97 85 45 64 76 86 75 98 93 96 98 100 100 70 83 100 99 99
62 72 71 67 57 54 54 56 61 74 83 96 94 71 85 82 58 82 94 91 98 98 98 98 100 99 96 92 100 100 97 100
62 25 23 26 36 58 62 40 34 33 57 58 34 29 30 57 95 98 96 98 98 99 100 98 99 97 99 96 98 79 95 92
59 33 19 19 20 25 32 27 24 26 28 28 27 29 65 80 90 95 98 96 99 98 99 100 98 90 67 88 96 99 66 98
75 64 49 43 31 22 22 23 25 28 32 30 28 46 59 77 91 96 85 87 97 84 81 85 66 81 68 77 68 71 54 94
76 98 93 86 81 73 54 48 59 63 47 33 47 57 54 53 59 66 46 32 18 43 64 94 41 47 56 44 45 63 100 100
23 23 25 27 41 77 91 86 74 52 31 40 50 46 35 20 10 8 9 10 16 18 34 36 37 40 40 50 71 100 100 93
29 23 20 18 23 33 39 45 44 38 32 41 37 31 10 8 8 10 11 15 22 22 30 34 36 46 63 79 85 93 100 100
18 21 19 24 26 44 53 50 53 41 35 25 11 8 10 11 12 13 15 19 22 28 34 40 47 53 66 83 98 99 95 88
11 15 15 21 28 36 42 40 36 28 15 10 10 12 13 14 15 17 19 23 29 31 36 41 49 62 80 89 87 84 83 81
13 12 15 20 31 38 42 37 27 13 11 13 14 16 17 18 21 22 23 24 28 37 43 49 63 76 79 80 82 80 79 70
Wind_Speed
14 11 6 7 6 6 7 8 11 12 11 11 10 10 11 11 12 13 16 9 12 9 10 12 15 18 21 25 28 33 36 38
10 9 8 9 8 6 5 8 9 10 10 8 10 11 12 13 14 16 12 13 12 11 14 18 19 23 27 29 33 38 39 41
10 10 9 8 8 8 8 8 8 8 9 11 12 12 12 13 14 16 16 12 16 17 20 23 25 28 32 36 37 40 40 44
9 10 10 10 11 10 9 8 8 9 11 12 12 14 12 11 13 16 15 19 20 24 25 28 31 32 35 38 39 40 44 45
8 9 11 11 11 12 13 13 12 12 12 14 14 14 14 14 14 18 20 21 23 27 32 35 37 37 41 39 41 44 48 46
11 12 13 13 13 14 14 15 15 16 15 17 19 17 17 16 15 17 23 25 25 29 32 35 35 38 40 43 46 48 50 52
13 18 17 15 16 17 17 17 17 18 17 18 21 22 21 20 21 21 25 29 31 33 35 36 35 38 44 48 51 56 56 56
21 18 18 18 19 21 20 19 20 19 18 17 20 21 27 25 25 24 29 32 34 34 34 37 38 43 48 52 57 53 58 62
14 18 23 23 22 22 22 22 20 18 19 20 20 22 22 19 25 29 31 32 31 36 35 35 38 47 50 54 58 60 63 65
17 20 21 25 25 25 24 21 19 19 21 20 22 24 26 29 32 33 33 35 34 34 34 36 42 50 53 59 63 60 66 61
15 17 18 20 20 18 18 20 19 20 22 24 26 29 33 36 35 37 37 34 31 34 34 38 46 52 57 64 62 68 67 69
17 17 18 18 18 18 20 21 22 24 25 27 29 33 34 35 39 36 35 34 35 35 36 38 48 58 62 61 67 69 71 66
19 20 19 18 19 22 23 24 26 29 30 32 35 36 38 38 39 37 37 38 38 43 46 51 57 61 62 60 63 67 66 65
22 24 24 25 25 26 26 27 30 33 34 35 36 38 39 41 40 38 40 42 46 48 46 53 57 56 59 62 65 65 61 68
22 25 28 30 32 34 33 34 36 37 36 37 38 39 40 40 41 41 42 44 46 48 49 52 54 57 60 63 65 63 68 70
22 25 29 31 33 34 34 34 35 36 37 37 38 38 38 38 39 41 43 44 46 49 51 54 57 59 61 63 64 66 68 71
26 25 27 30 31 31 31 32 33 34 35 36 35 36 36 38 40 43 44 46 50 53 54 56 58 61 62 64 65 66 69 73
28 28 27 28 30 30 31 31 31 32 33 34 35 37 38 41 43 46 48 50 53 56 57 58 60 62 64 64 66 68 71 74
29 30 30 31 31 31 31 32 32 32 33 35 37 39 42 43 45 48 51 54 56 57 58 59 61 63 63 66 69 71 74 76
Wind_Direction
151 153 145 118 135 118 117 114 122 129 133 144 158 180 198 214 225 239 220 228 238 242 258 270 279 288 294 295 299 304 299 293
180 173 176 177 174 170 162 153 159 167 174 189 208 209 220 226 235 243 243 224 238 260 268 275 284 292 292 295 296 300 302 299
170 181 192 196 201 205 197 188 183 195 215 229 235 235 237 239 235 241 236 227 240 259 269 276 287 293 292 291 293 303 308 305
210 209 213 221 232 237 226 221 221 234 240 241 242 244 254 262 256 244 250 254 248 264 274 280 285 291 298 296 299 303 307 308
228 234 234 233 232 235 243 250 253 258 258 254 259 260 258 258 260 262 264 264 267 271 279 281 284 288 299 299 307 303 297 309
221 226 230 231 240 245 248 250 254 257 263 261 264 264 259 261 266 270 275 281 281 278 285 282 282 286 300 299 301 303 302 300
247 250 252 254 261 264 263 267 269 269 271 260 258 259 258 262 265 274 281 285 284 282 283 283 281 293 298 300 304 304 303 303
282 272 262 257 260 263 272 279 281 274 274 267 259 266 255 257 266 278 282 288 289 287 284 279 287 295 294 301 303 300 299 305
266 269 268 267 265 270 272 280 276 273 275 270 268 273 282 294 289 284 287 286 284 284 284 282 284 289 293 302 299 295 300 302
270 268 266 271 279 277 270 272 267 267 276 283 288 297 292 288 288 289 287 286 285 282 285 284 275 284 293 295 294 296 301 304
261 266 264 265 271 268 261 257 260 265 270 274 281 287 288 288 284 284 287 287 285 289 282 275 282 289 289 294 291 296 296 297
246 251 255 258 260 259 256 257 262 266 272 280 286 290 289 288 288 288 290 291 292 295 287 277 276 285 290 291 291 295 300 297
235 239 243 246 252 255 258 261 265 273 280 282 283 287 290 291 289 289 289 293 286 283 280 280 286 289 291 291 294 297 299 293
244 241 243 250 253 256 258 262 267 274 280 283 286 288 291 290 292 290 291 290 293 288 289 283 290 291 295 296 297 298 291 291
256 253 254 257 258 259 261 265 270 275 278 280 283 286 288 289 291 292 292 293 293 293 289 288 293 295 296 296 297 296 297 299
266 257 258 260 259 261 264 266 266 269 274 278 282 284 286 289 292 293 294 295 293 295 296 297 297 297 297 296 297 298 298 295
266 264 264 265 265 267 266 266 268 272 276 279 282 286 291 295 298 299 299 299 298 298 299 297 297 297 298 298 297 297 298 299
267 267 266 266 269 270 274 277 279 281 283 286 291 295 297 299 300 301 301 300 299 299 298 298 298 299 300 299 300 301 302 302
266 265 264 264 267 271 275 277 280 283 287 292 295 296 298 299 300 299 299 299 299 299 299 300 301 301 301 303 304 304 304 303